Weather History for St. Joseph, MO

Change the Weather History Date:

Sunday, November 10, 2013

  Actual Average Record
Temperature  
Mean Temperature 43 °F 45 °F  
Max Temperature 57 °F 56 °F 82 °F (1927)
Min Temperature 28 °F 34 °F 16 °F (1960)
Degree Days  
Heating Degree Days 22 20  
Month to date heating degree days 184 183  
Since 1 July heating degree days 589 602  
Cooling Degree Days 0 0  
Month to date cooling degree days 0 0  
Year to date cooling degree days 1285 1220  
Moisture  
Dew Point 30 °F    
Average Humidity 62    
Maximum Humidity 89    
Minimum Humidity 35    
Precipitation  
Precipitation 0.00 in 0.05 in 0.43 in (1940)
Month to date precipitation 0.68 0.70  
Year to date precipitation 29.57 33.23  
Sea Level Pressure  
Sea Level Pressure 30.35 in    
Wind  
Wind Speed 4 mph (SE)    
Max Wind Speed 10 mph    
Max Gust Speed 12 mph    
Visibility 10 miles    
Events      
T = Trace of Precipitation, MM = Missing Value Source: NWS Daily Summary

Daily Weather History Graph

Daily Weather History Graph

Search for Another Location

Airport:

Trip Planner

Search our weather history database for the weather conditions in past years. The results will help you decide how hot, cold, wet, or windy it might be!

Date:

Astronomy

Nov. 10, 2013 Rise Set
Actual Time 6:58 AM CST 5:07 PM CST
Civil Twilight 6:30 AM CST 5:36 PM CST
Nautical Twilight 5:57 AM CST 6:08 PM CST
Astronomical Twilight 5:26 AM CST 6:40 PM CST
Moon 1:12 PM CST (11/10) No Moon Set
Length of Visible Light 11h 06m
Length of Day
10h 08m
First Quarter, 56% of the Moon is Illuminated
Nov 10
First Quarter
Nov 17
Full
Nov 25
Last Quarter
Dec 2
New
Dec 9
First Quarter

Hourly Weather History & Observations

Time (CST) Temp. Windchill Dew Point Humidity Pressure Visibility Wind Dir Wind Speed Gust Speed Precip Events Conditions
12:53 AM 35.1 °F - 32.0 °F 89% 30.36 in 10.0 mi Calm Calm - N/A   Clear
1:53 AM 34.0 °F 28.0 °F 30.9 °F 89% 30.38 in 10.0 mi NNE 6.9 mph - N/A   Clear
2:53 AM 34.0 °F 28.8 °F 30.9 °F 89% 30.38 in 10.0 mi NNE 5.8 mph - N/A   Clear
3:53 AM 33.1 °F - 30.0 °F 89% 30.39 in 10.0 mi Calm Calm - N/A   Clear
4:53 AM 34.0 °F 31.0 °F 30.0 °F 85% 30.40 in 10.0 mi NNE 3.5 mph - N/A   Clear
5:53 AM 30.0 °F 26.5 °F 26.1 °F 85% 30.43 in 10.0 mi North 3.5 mph - N/A   Clear
6:53 AM 30.0 °F 26.5 °F 26.1 °F 85% 30.43 in 10.0 mi North 3.5 mph - N/A   Clear
7:53 AM 33.1 °F - 30.0 °F 89% 30.45 in 10.0 mi Calm Calm - N/A   Clear
8:53 AM 42.1 °F 37.1 °F 28.0 °F 58% 30.46 in 10.0 mi East 8.1 mph - N/A   Clear
9:53 AM 43.0 °F 38.2 °F 28.0 °F 56% 30.45 in 10.0 mi ESE 8.1 mph - N/A   Clear
10:53 AM 46.9 °F - 28.0 °F 48% 30.44 in 10.0 mi SSE 8.1 mph - N/A   Clear
11:53 AM 50.0 °F - 28.9 °F 44% 30.41 in 10.0 mi SSE 8.1 mph - N/A   Clear
12:53 PM 50.0 °F - 27.0 °F 41% 30.38 in 10.0 mi South 3.5 mph - N/A   Clear
1:53 PM 52.0 °F - 27.0 °F 38% 30.35 in 10.0 mi SSE 6.9 mph - N/A   Clear
2:53 PM 54.0 °F - 28.0 °F 37% 30.31 in 10.0 mi ESE 6.9 mph - N/A   Clear
3:53 PM 55.0 °F - 28.0 °F 35% 30.31 in 10.0 mi South 5.8 mph - N/A   Overcast
4:53 PM 53.1 °F - 30.0 °F 41% 30.29 in 10.0 mi SE 4.6 mph - N/A   Overcast
5:53 PM 52.0 °F - 32.0 °F 47% 30.29 in 10.0 mi Calm Calm - N/A   Overcast
6:53 PM 48.0 °F - 32.0 °F 54% 30.28 in 10.0 mi SSE 6.9 mph - N/A   Mostly Cloudy
7:53 PM 46.0 °F - 32.0 °F 58% 30.27 in 10.0 mi Calm Calm - N/A   Scattered Clouds
8:53 PM 48.0 °F - 36.0 °F 63% 30.26 in 10.0 mi SSE 3.5 mph - N/A   Overcast
9:53 PM 50.0 °F - 35.1 °F 57% 30.24 in 10.0 mi SSE 3.5 mph - N/A   Overcast
10:53 PM 46.0 °F 43.9 °F 37.9 °F 73% 30.23 in 10.0 mi South 4.6 mph - N/A   Mostly Cloudy
11:53 PM 46.0 °F 43.9 °F 35.1 °F 66% 30.22 in 10.0 mi South 4.6 mph - N/A   Scattered Clouds